SBONWEB Weather Reports


time (UTC)temp
C
wind
direction
speed
KPH
gust
KPH
rain 1hr
cm
rain 24hr
cm
rain mn
cm
humidity
%
barometer
mb
20260507083603 15 121 1.6 3.2 0.00 1.55 0.05 75 1013.6
20260507082703 15 51 3.2 6.4 0.00 1.55 0.05 72 1013.7
20260507082017 15 44 4.8 9.7 0.00 1.55 0.05 73 1013.7
20260507080903 15 41 4.8 11.3 0.00 1.55 0.05 73 1013.5
20260507080003 14 7 4.8 8.0 0.00 1.55 0.05 77 1013.4
20260507075403 14 10 6.4 11.3 0.00 1.55 0.05 78 1013.4
20260507074503 13 23 8.0 14.5 0.00 1.55 0.05 81 1013.4
20260507073603 12 15 4.8 14.5 0.00 1.55 0.05 81 1013.4
20260507072704 12 348 4.8 11.3 0.00 1.55 0.05 84 1013.4
20260507071803 12 340 6.4 14.5 0.00 1.55 0.05 86 1013.4
20260507070905 11 7 4.8 14.5 0.00 1.55 0.05 87 1013.4
20260507070006 11 6 6.4 12.9 0.00 1.55 0.05 87 1013.3
20260507065617 11 358 6.4 14.5 0.00 1.55 0.05 88 1013.3
20260507064503 11 339 4.8 14.5 0.00 1.55 0.05 89 1013.2
20260507063603 11 270 4.8 11.3 0.00 1.57 0.05 90 1013.1
20260507062703 11 333 4.8 14.5 0.00 1.57 0.05 90 1013.1
20260507061804 11 331 4.8 12.9 0.00 1.57 0.05 91 1013.1
20260507060903 10 348 6.4 12.9 0.00 1.57 0.05 91 1013.1
20260507060003 10 5 6.4 12.9 0.00 1.57 0.05 90 1012.9
20260507055403 10 6 8.0 12.9 0.00 1.57 0.05 90 1012.9
20260507054503 10 357 8.0 16.1 0.00 1.57 0.05 91 1012.8
20260507053817 10 1 6.4 16.1 0.00 1.57 0.05 91 1012.7
20260507052704 10 17 6.4 12.9 0.00 1.57 0.05 92 1012.6
20260507051803 10 18 4.8 12.9 0.00 1.57 0.05 92 1012.5
20260507050904 10 4 3.2 11.3 0.00 1.60 0.05 93 1012.5
20260507050003 10 239 3.2 4.8 0.00 1.60 0.05 93 1012.3
20260507045403 10 228 3.2 4.8 0.00 1.60 0.05 93 1012.3
20260507044503 10 286 6.4 8.0 0.00 1.60 0.05 92 1012.2
20260507043604 10 10 8.0 14.5 0.00 1.60 0.05 92 1012.1
20260507042703 10 20 8.0 14.5 0.00 1.60 0.05 92 1011.9
20260507041803 10 24 9.7 14.5 0.00 1.60 0.05 92 1011.7
20260507040903 10 24 8.0 16.1 0.00 1.60 0.05 92 1011.7
20260507040004 10 18 8.0 17.7 0.00 1.60 0.05 92 1011.8
20260507035403 10 16 8.0 17.7 0.00 1.60 0.05 92 1011.8
20260507034717 10 23 8.0 16.1 0.00 1.60 0.05 92 1011.8
20260507033603 10 19 6.4 11.3 0.00 1.63 0.05 93 1011.7
20260507032704 10 22 8.0 14.5 0.00 1.63 0.05 93 1011.7
20260507031803 10 24 8.0 14.5 0.00 1.65 0.05 93 1011.7
20260507031118 10 22 8.0 14.5 0.00 1.68 0.05 93 1011.7
20260507030003 10 19 9.7 17.7 0.00 2.08 0.05 93 1011.8
20260507025403 10 23 8.0 17.7 0.00 2.57 0.05 93 1011.7
20260507024503 10 16 8.0 12.9 0.00 2.59 0.05 93 1011.7
20260507023603 10 15 9.7 17.7 0.00 2.64 0.05 93 1011.6
20260507022704 10 10 8.0 17.7 0.00 2.67 0.05 94 1011.7
20260507021803 10 21 9.7 16.1 0.00 2.67 0.05 94 1011.9
20260507020903 10 23 9.7 16.1 0.00 2.67 0.05 94 1011.8
20260507020003 10 20 8.0 14.5 0.00 2.67 0.05 94 1011.8
20260507015403 10 21 6.4 14.5 0.00 2.67 0.05 94 1011.7
20260507014503 10 13 4.8 12.9 0.00 2.67 0.05 94 1011.8
20260507013604 10 12 3.2 8.0 0.00 2.67 0.05 94 1011.6
20260507012703 10 23 6.4 8.0 0.00 2.67 0.05 94 1011.7
20260507011803 10 5 4.8 12.9 0.00 2.67 0.05 94 1011.6
20260507010003 10 33 6.4 12.9 0.00 2.67 0.05 94 1011.6
20260507005403 10 5 6.4 12.9 0.00 2.67 0.05 94 1011.5
20260507004504 10 286 6.4 11.3 0.00 2.67 0.05 93 1011.5
20260507003603 10 9 8.0 12.9 0.00 2.67 0.05 93 1011.5
20260507002703 10 7 9.7 14.5 0.03 2.67 0.05 93 1011.4
20260507002018 10 18 9.7 16.1 0.03 2.67 0.05 93 1011.4
20260507000903 10 18 8.0 16.1 0.03 2.67 0.05 93 1011.6
20260507000217 10 11 6.4 16.1 0.03 2.67 0.05 93 1011.4
20260506235618 10 338 6.4 14.5 0.03 2.67 0.05 92 1011.6
20260506234503 10 18 6.4 12.9 0.03 2.67 0.05 92 1011.5
20260506233604 10 24 11.3 16.1 0.03 2.67 0.05 91 1011.4
20260506232918 10 19 11.3 17.7 0.00 2.64 0.03 91 1011.2
20260506231803 10 8 11.3 17.7 0.00 2.64 0.03 92 1011.4
20260506230903 10 5 11.3 19.3 0.00 2.64 0.03 92 1011.4
20260506230003 10 13 12.9 24.1 0.03 2.64 0.03 92 1011.3
20260506225403 10 12 12.9 24.1 0.03 2.64 0.03 92 1011.3
20260506224719 11 13 14.5 22.5 0.03 2.64 0.03 92 1011.3
20260506223603 11 17 12.9 20.9 0.03 2.64 0.03 91 1011.3
20260506222703 11 17 11.3 19.3 0.03 2.64 0.03 91 1011.2
20260506222017 11 14 11.3 20.9 0.03 2.67 0.03 91 1011.2
20260506221117 11 7 9.7 22.5 0.03 2.69 0.03 91 1011.2
20260506220004 11 8 8.0 16.1 0.00 2.69 0.00 92 1011.2
20260506215617 11 9 8.0 16.1 0.00 2.69 2.69 92 1011.2
20260506214503 11 356 9.7 14.5 0.00 2.69 2.69 92 1011.1
20260506213818 11 18 11.3 16.1 0.00 2.74 2.69 92 1011.1
20260506212704 11 16 9.7 19.3 0.00 2.82 2.69 92 1011.2
20260506211803 11 7 6.4 16.1 0.00 2.87 2.69 93 1011.2
20260506210903 11 343 4.8 12.9 0.00 2.92 2.69 93 1011.2
20260506210003 11 299 6.4 16.1 0.00 2.92 2.69 93 1011.3
20260506205617 11 350 4.8 16.1 0.00 2.95 2.69 93 1011.1
20260506204503 11 22 6.4 11.3 0.00 2.97 2.69 93 1011.0
20260506203603 11 20 8.0 14.5 0.00 2.97 2.69 93 1010.9
20260506202704 11 4 8.0 12.9 0.00 3.02 2.69 93 1010.7
20260506201803 10 9 6.4 11.3 0.00 3.02 2.69 93 1010.8
20260506200903 10 21 6.4 12.9 0.00 3.02 2.69 93 1010.8
20260506200004 10 13 8.0 14.5 0.00 3.02 2.69 93 1010.6
20260506195404 10 11 6.4 14.5 0.00 3.02 2.69 94 1010.5
20260506194503 10 356 4.8 8.0 0.00 3.02 2.69 94 1010.4
20260506193603 10 29 1.6 6.4 0.00 3.02 2.69 94 1010.4
20260506192703 10 188 1.6 4.8 0.03 3.05 2.69 94 1010.5
20260506191804 10 221 3.2 4.8 0.03 3.05 2.69 94 1010.2
20260506190903 11 256 3.2 6.4 0.13 3.10 2.69 93 1009.9
20260506190217 11 249 1.6 6.4 0.25 3.12 2.69 93 1009.6
20260506185403 11 228 3.2 4.8 0.33 3.25 2.69 93 1009.7
20260506184503 11 338 3.2 8.0 0.38 3.33 2.69 92 1009.3
20260506183817 11 357 4.8 11.3 0.43 3.33 2.69 92 1009.1
20260506182918 11 27 4.8 11.3 0.56 3.33 2.67 91 1008.6
20260506182018 11 46 11.3 25.7 0.61 3.33 2.67 92 1008.3
20260506180903 11 67 4.8 19.3 0.56 3.33 2.57 91 1009.0
20260506180218 11 175 6.4 11.3 0.43 3.23 2.41 91 1009.6
20260506175403 12 141 9.7 16.1 0.36 3.20 2.34 89 1009.4
20260506174503 12 94 6.4 16.1 0.33 3.20 2.31 86 1008.7
20260506173817 12 124 4.8 12.9 0.25 3.15 2.24 90 1008.9
20260506172703 12 122 9.7 17.7 0.10 2.97 2.08 88 1008.7
20260506171803 12 9 11.3 22.5 0.05 2.95 2.03 85 1008.4
20260506170903 13 352 12.9 20.9 0.03 2.95 2.01 84 1008.4
20260506170004 13 9 9.7 22.5 0.00 3.05 1.98 82 1008.3
20260506165403 13 3 8.0 19.3 0.00 3.07 1.98 83 1008.2
20260506164503 13 352 6.4 17.7 0.00 3.12 1.98 84 1008.2
20260506163603 13 9 6.4 11.3 0.00 3.15 1.98 86 1008.0
20260506162917 13 352 4.8 12.9 0.00 3.20 1.98 86 1007.8
20260506161803 13 300 4.8 14.5 0.00 3.23 1.98 86 1007.9
20260506160903 13 300 9.7 16.1 0.00 3.25 1.98 86 1007.6
20260506160008 13 356 11.3 17.7 0.00 3.25 1.98 85 1007.2
20260506155617 13 4 11.3 17.7 0.00 3.25 1.98 83 1007.2
20260506154503 13 20 9.7 22.5 0.00 3.25 1.98 81 1007.5
20260506153603 13 32 9.7 20.9 0.00 3.25 1.98 82 1007.7
20260506152704 13 24 14.5 20.9 0.00 3.28 1.98 82 1007.7
20260506151803 13 19 14.5 22.5 0.00 3.28 1.98 83 1007.7
20260506150903 13 5 14.5 25.7 0.00 3.28 1.98 85 1007.7
20260506150003 12 9 11.3 20.9 0.00 3.28 1.98 87 1008.0
20260506145403 12 19 6.4 20.9 0.00 3.30 1.98 87 1008.2
20260506144503 13 29 6.4 9.7 0.00 3.33 1.98 92 1008.1
20260506143604 12 10 11.3 24.1 0.00 3.33 1.98 91 1008.1
20260506142916 12 15 11.3 24.1 0.00 3.33 1.98 88 1008.1
20260506141804 12 25 12.9 20.9 0.00 3.33 1.98 91 1008.3
20260506141117 13 19 12.9 22.5 0.03 3.33 1.98 93 1008.2
20260506140003 12 355 8.0 20.9 0.23 3.33 1.98 94 1008.1
20260506135403 12 299 6.4 16.1 0.36 3.33 1.98 94 1008.1
20260506134503 12 353 8.0 16.1 0.61 3.33 1.98 95 1008.1
20260506133603 12 23 8.0 14.5 0.71 3.35 1.98 94 1008.2
20260506132703 11 10 8.0 14.5 0.76 3.35 1.98 94 1008.4
20260506132017 11 1 4.8 14.5 0.76 3.38 1.98 94 1008.4
20260506130903 11 276 3.2 6.4 0.71 3.33 1.93 94 1008.5
20260506130003 11 31 8.0 14.5 0.53 3.15 1.75 93 1008.6
20260506125403 11 261 8.0 24.1 0.41 3.05 1.63 92 1008.2
20260506124717 11 256 8.0 24.1 0.18 2.82 1.40 90 1008.2
20260506123603 13 173 8.0 16.1 0.05 2.69 1.27 84 1008.4
20260506122703 15 99 16.1 20.9 0.00 2.67 1.22 88 1008.2
20260506121803 15 98 16.1 25.7 0.00 2.67 1.22 87 1008.0
20260506120903 15 90 11.3 30.6 0.00 2.67 1.22 86 1007.8
20260506120003 15 76 9.7 20.9 0.00 2.67 1.22 87 1007.8
20260506115403 15 78 12.9 20.9 0.00 2.69 1.22 89 1007.7
20260506114717 15 87 12.9 19.3 0.05 2.69 1.22 88 1007.8
20260506113603 14 101 14.5 24.1 0.05 2.69 1.22 88 1007.9
20260506112703 15 101 12.9 24.1 0.05 2.69 1.22 89 1007.9
20260506112016 15 99 12.9 25.7 0.05 2.72 1.22 89 1008.0
20260506110903 14 101 14.5 30.6 0.05 2.77 1.22 91 1008.0
20260506110003 13 91 11.3 30.6 0.05 2.82 1.22 92 1008.0
20260506105403 13 91 12.9 25.7 0.05 2.82 1.22 94 1008.1
20260506104503 13 99 12.9 25.7 0.00 2.79 1.17 93 1008.1
20260506103603 13 93 12.9 20.9 0.00 2.82 1.17 93 1008.2
20260506102703 13 93 11.3 30.6 0.00 2.84 1.17 93 1008.3
20260506101803 13 80 11.3 30.6 0.00 2.84 1.17 94 1008.2
20260506100903 13 89 14.5 29.0 0.00 2.84 1.17 94 1008.2
20260506100004 13 89 16.1 25.7 0.00 2.87 1.17 94 1008.3
20260506095403 13 91 17.7 33.8 0.00 2.90 1.17 94 1008.2
20260506094503 12 88 16.1 38.6 0.00 2.95 1.17 94 1008.0
20260506093603 12 87 17.7 30.6 0.00 2.97 1.17 94 1008.1
20260506092703 12 85 16.1 29.0 0.00 2.97 1.17 94 1008.1
20260506091803 12 80 12.9 29.0 0.00 3.00 1.17 95 1008.1
20260506090903 12 77 11.3 27.4 0.00 3.02 1.17 95 1008.1
20260506090003 12 81 12.9 24.1 0.00 3.02 1.17 96 1008.0
20260506085618 12 83 14.5 24.1 0.00 3.02 1.17 96 1008.0
20260506084717 12 81 16.1 29.0 0.00 3.05 1.17 96 1008.0